Back to catalog

STARLINK-35090

AliveCommunicationsVLEO
NORAD 65698·PAYLOAD·🇺🇸 United States

Launched Sep 21, 2025 from Cape Canaveral Space Force Station

Loading…

Next Passes (next 24 hours)

TLE

FreshSource: CelesTrak SupGP

Epoch: Sep 14, 2026, 14:43 UTC

1 65698C 25212Y   26257.61368056  .00054089  00000+0  15974-2 0  2573
2 65698  53.1580 184.9195 0001300  99.8801 275.5550 15.34376177    18

Track STARLINK-35090 in real time with AllMySat

Download on the App Store